PROFILE

 METAR AND TAF INFORMATION
ADDS - METARS form results

(1309 UTC 26 March 2019)
http://aviationweather.gov/metar/data/
 
KSAN 261251Z 00000KT 9SM BKN009 BKN250 13/11 A3003 RMK AO2 SLP167 T01280106
KSAN 261231Z 01003KT 9SM BKN008 BKN250 13/11 A3002 RMK AO2 T01280106
KSAN 261244Z 2613/2718 VRB04KT P6SM FEW010 SCT250 TEMPO 2613/2615 BKN008 FM261900 30010KT P6SM SCT150 BKN250 FM270300 VRB04KT P6SM SCT015 BKN200 FM270500 VRB04KT P6SM BKN015 FM271600 VRB04KT P6SM BKN022 

 AIRPORT MAP

 RUNWAY INFORMATION
Runway 09 Runway length 9401 ft Runway width 200 ft
Runway elevation 14 ft Runway displaced threshold 700 ft Runway heading 106
Runway 27 Runway length 9401 ft Runway width 200 ft
Runway elevation 13 ft Runway displaced threshold 1810 ft Runway heading 286

 AIRPORT FREQUENCIES
Type A/D Name SOCAL APP/ Frequency 119.6 MHZ
Type ATIS Name ATIS Frequency 134.8 MHZ
Type CLD Name CLNC DEL Frequency 125.9 MHZ
Type GND Name GND Frequency 123.9 MHZ
Type MISC Name CG Frequency 157.15 MHZ
Type MISC Name CG Frequency 898.4 MHZ
Type TWR Name LINDBERGH Frequency 118.3 MHZ
Type UNIC Name UNICOM Frequency 122.95 MHZ

 AIRPORT NEAR NAVIGATION AIDS
Type NDB Name Boing Frequency 245 KHZ